Tracking 29892 objects as of 21-Nov-2024
HD Live streaming from Space Station
objects crossing your sky now

OBJECT C

Track OBJECT C now!
10-day predictions


NORAD ID: 53950
Int'l Code: 2022-121C
Perigee: 430.8 km
Apogee: 441.5 km
Inclination: 97.4 °
Period: 93.2 minutes
Semi major axis: 6807 km
RCS: Unknown
Launch date: September 26, 2022
Source: People's Republic of China (PRC)
Launch site: Taiyaun Space Center, China (TSC)
Your satellite tracking list
Your tracking list is empty




NASA's NSSDC Master Catalog

Two Line Element Set (TLE):
1 53950U 22121C   24326.14659058  .00040205  00000-0  82764-3 0  9996
2 53950  97.3726 352.1321 0007862  30.7472 329.4236 15.45802546119977
Source of the keplerian elements: AFSPC